Time,TemperatureF,DewpointF,PressureIn,WindDirection,WindDirectionDegrees,WindSpeedMPH,WindSpeedGustMPH,Humidity,HourlyPrecipIn,Conditions,Clouds,dailyrainin,SoftwareType,DateUTC
2013-06-08 00:00:00,75.4,31.5,29.95,SSW,202,0.0,0.0,20,0.00,CLR,,0.00,WeatherDisplay:10.37,2013-06-08 07:00:00,
2013-06-08 00:05:00,74.8,31.1,29.95,SW,220,0.0,0.0,20,0.00,CLR,,0.00,WeatherDisplay:10.37,2013-06-08 07:05:00,
2013-06-08 00:10:00,74.8,32.3,29.95,WSW,256,0.0,0.0,21,0.00,CLR,,0.00,WeatherDisplay:10.37,2013-06-08 07:10:00,
2013-06-08 00:15:00,74.8,32.3,29.95,West,270,0.0,0.0,21,0.00,CLR,,0.00,WeatherDisplay:10.37,2013-06-08 07:15:00,
2013-06-08 00:20:00,74.9,32.3,29.94,West,270,0.0,0.0,21,0.00,CLR,,0.00,WeatherDisplay:10.37,2013-06-08 07:20:00,
2013-06-08 00:25:00,75.0,32.4,29.95,West,279,0.0,0.0,21,0.00,CLR,,0.00,WeatherDisplay:10.37,2013-06-08 07:25:00,
2013-06-08 00:30:00,75.4,32.7,29.94,WSW,257,0.0,0.0,21,0.00,CLR,,0.00,WeatherDisplay:10.37,2013-06-08 07:30:00,
2013-06-08 00:35:00,75.4,32.7,29.94,West,266,0.0,0.0,21,0.00,CLR,,0.00,WeatherDisplay:10.37,2013-06-08 07:35:00,
2013-06-08 00:40:00,75.6,32.9,29.94,WNW,289,0.0,0.0,21,0.00,CLR,,0.00,WeatherDisplay:10.37,2013-06-08 07:40:00,
2013-06-08 00:45:00,75.7,33.0,29.94,WNW,288,0.0,0.0,21,0.00,CLR,,0.00,WeatherDisplay:10.37,2013-06-08 07:45:00,
2013-06-08 00:50:00,75.7,33.0,29.94,WNW,292,0.0,0.0,21,0.00,CLR,,0.00,WeatherDisplay:10.37,2013-06-08 07:50:00,
2013-06-08 00:55:00,75.9,33.2,29.94,WNW,285,0.0,0.0,21,0.00,CLR,,0.00,WeatherDisplay:10.37,2013-06-08 07:55:00,
2013-06-08 01:00:00,75.9,33.2,29.94,West,268,0.0,0.0,21,0.00,CLR,,0.00,WeatherDisplay:10.37,2013-06-08 08:00:00,
2013-06-08 01:05:00,75.9,33.2,29.94,West,265,0.0,0.0,21,0.00,CLR,,0.00,WeatherDisplay:10.37,2013-06-08 08:05:00,
2013-06-08 01:10:00,75.9,33.2,29.94,West,274,0.0,0.0,21,0.00,CLR,,0.00,WeatherDisplay:10.37,2013-06-08 08:10:00,
2013-06-08 01:15:00,75.9,33.2,29.94,WNW,285,0.0,0.0,21,0.00,CLR,,0.00,WeatherDisplay:10.37,2013-06-08 08:15:00,
2013-06-08 01:20:00,75.9,33.2,29.94,WNW,292,0.0,0.0,21,0.00,CLR,,0.00,WeatherDisplay:10.37,2013-06-08 08:20:00,
2013-06-08 01:25:00,75.7,33.0,29.94,WNW,287,0.0,0.0,21,0.00,CLR,,0.00,WeatherDisplay:10.37,2013-06-08 08:25:00,
2013-06-08 01:30:00,75.7,33.0,29.94,WNW,288,0.0,0.0,21,0.00,CLR,,0.00,WeatherDisplay:10.37,2013-06-08 08:30:00,
2013-06-08 01:35:00,75.7,33.0,29.94,WNW,294,0.0,0.0,21,0.00,CLR,,0.00,WeatherDisplay:10.37,2013-06-08 08:35:00,
2013-06-08 01:40:00,75.9,33.1,29.94,WNW,299,0.0,0.0,21,0.00,CLR,,0.00,WeatherDisplay:10.37,2013-06-08 08:40:00,
2013-06-08 01:45:00,75.9,33.2,29.94,WNW,295,0.0,0.0,21,0.00,CLR,,0.00,WeatherDisplay:10.37,2013-06-08 08:45:00,
2013-06-08 01:50:00,75.9,33.2,29.93,WNW,287,0.0,0.0,21,0.00,CLR,,0.00,WeatherDisplay:10.37,2013-06-08 08:50:00,
2013-06-08 01:55:00,75.9,33.2,29.94,WNW,293,0.0,0.0,21,0.00,CLR,,0.00,WeatherDisplay:10.37,2013-06-08 08:55:00,
2013-06-08 02:00:00,75.9,33.2,29.94,NW,309,0.0,2.0,21,0.00,CLR,,0.00,WeatherDisplay:10.37,2013-06-08 09:00:00,
2013-06-08 02:05:00,75.9,33.2,29.94,WNW,300,0.0,0.0,21,0.00,CLR,,0.00,WeatherDisplay:10.37,2013-06-08 09:05:00,
2013-06-08 02:10:00,75.9,33.2,29.94,WNW,285,0.0,0.0,21,0.00,CLR,,0.00,WeatherDisplay:10.37,2013-06-08 09:10:00,
2013-06-08 02:15:00,75.9,33.2,29.94,WNW,290,0.0,0.0,21,0.00,CLR,,0.00,WeatherDisplay:10.37,2013-06-08 09:15:00,
2013-06-08 02:20:00,75.7,33.0,29.94,WNW,292,0.0,1.0,21,0.00,CLR,,0.00,WeatherDisplay:10.37,2013-06-08 09:20:00,
2013-06-08 02:25:00,75.6,32.9,29.94,WNW,297,0.0,1.0,21,0.00,CLR,,0.00,WeatherDisplay:10.37,2013-06-08 09:25:00,
2013-06-08 02:30:00,75.6,32.9,29.94,NW,309,0.0,0.0,21,0.00,CLR,,0.00,WeatherDisplay:10.37,2013-06-08 09:30:00,
2013-06-08 02:35:00,75.4,32.7,29.94,NW,315,0.0,0.0,21,0.00,CLR,,0.00,WeatherDisplay:10.37,2013-06-08 09:35:00,
2013-06-08 02:40:00,75.4,32.7,29.95,NW,315,0.0,0.0,21,0.00,CLR,,0.00,WeatherDisplay:10.37,2013-06-08 09:40:00,
2013-06-08 02:45:00,75.0,32.4,29.95,NW,315,0.0,0.0,21,0.00,CLR,,0.00,WeatherDisplay:10.37,2013-06-08 09:45:00,
2013-06-08 02:50:00,75.0,32.4,29.94,NW,315,0.0,0.0,21,0.00,CLR,,0.00,WeatherDisplay:10.37,2013-06-08 09:50:00,
2013-06-08 02:55:00,74.5,32.0,29.95,NW,315,0.0,0.0,21,0.00,CLR,,0.00,WeatherDisplay:10.37,2013-06-08 09:55:00,
2013-06-08 03:00:00,74.5,32.0,29.95,NW,315,0.0,0.0,21,0.00,CLR,,0.00,WeatherDisplay:10.37,2013-06-08 10:00:00,
2013-06-08 03:05:00,74.1,31.6,29.95,NW,315,0.0,0.0,21,0.00,CLR,,0.00,WeatherDisplay:10.37,2013-06-08 10:05:00,
2013-06-08 03:10:00,73.8,31.4,29.95,NW,315,0.0,0.0,21,0.00,CLR,,0.00,WeatherDisplay:10.37,2013-06-08 10:10:00,
2013-06-08 03:15:00,73.6,31.2,29.94,NW,315,0.0,0.0,21,0.00,CLR,,0.00,WeatherDisplay:10.37,2013-06-08 10:15:00,
2013-06-08 03:20:00,73.2,32.1,29.95,NW,315,0.0,0.0,22,0.00,CLR,,0.00,WeatherDisplay:10.37,2013-06-08 10:20:00,
2013-06-08 03:25:00,72.7,31.6,29.95,NW,315,0.0,0.0,22,0.00,CLR,,0.00,WeatherDisplay:10.37,2013-06-08 10:25:00,
2013-06-08 03:30:00,72.5,31.5,29.95,NW,315,0.0,0.0,22,0.00,CLR,,0.00,WeatherDisplay:10.37,2013-06-08 10:30:00,
2013-06-08 03:35:00,72.1,31.2,29.95,NW,315,0.0,0.0,22,0.00,CLR,,0.00,WeatherDisplay:10.37,2013-06-08 10:35:00,
2013-06-08 03:40:00,72.1,31.2,29.94,NW,315,0.0,0.0,22,0.00,CLR,,0.00,WeatherDisplay:10.37,2013-06-08 10:40:00,
2013-06-08 03:45:00,71.8,30.9,29.94,NW,315,0.0,0.0,22,0.00,CLR,,0.00,WeatherDisplay:10.37,2013-06-08 10:45:00,
2013-06-08 03:50:00,71.5,31.8,29.95,NW,315,0.0,0.0,23,0.00,CLR,,0.00,WeatherDisplay:10.37,2013-06-08 10:50:00,
2013-06-08 03:55:00,71.4,31.7,29.95,NW,315,0.0,0.0,23,0.00,CLR,,0.00,WeatherDisplay:10.37,2013-06-08 10:55:00,
2013-06-08 04:00:00,71.2,31.5,29.95,NW,315,0.0,0.0,23,0.00,CLR,,0.00,WeatherDisplay:10.37,2013-06-08 11:00:00,
2013-06-08 04:05:00,70.9,31.2,29.95,NW,315,0.0,0.0,23,0.00,CLR,,0.00,WeatherDisplay:10.37,2013-06-08 11:05:00,
2013-06-08 04:10:00,70.9,31.2,29.95,NW,315,0.0,0.0,23,0.00,CLR,,0.00,WeatherDisplay:10.37,2013-06-08 11:10:00,
2013-06-08 04:15:00,70.7,31.0,29.94,NW,315,0.0,0.0,23,0.00,CLR,,0.00,WeatherDisplay:10.37,2013-06-08 11:15:00,
2013-06-08 04:20:00,70.4,30.8,29.94,NW,315,0.0,0.0,23,0.00,CLR,,0.00,WeatherDisplay:10.37,2013-06-08 11:20:00,
2013-06-08 04:25:00,70.2,30.6,29.94,NW,315,0.0,0.0,23,0.00,CLR,,0.00,WeatherDisplay:10.37,2013-06-08 11:25:00,
2013-06-08 04:30:00,69.8,30.3,29.95,NW,315,0.0,0.0,23,0.00,CLR,,0.00,WeatherDisplay:10.37,2013-06-08 11:30:00,
2013-06-08 04:35:00,69.6,30.1,29.95,NW,315,0.0,0.0,23,0.00,CLR,,0.00,WeatherDisplay:10.37,2013-06-08 11:35:00,
2013-06-08 04:40:00,69.4,30.0,29.94,NW,315,0.0,0.0,23,0.00,CLR,,0.00,WeatherDisplay:10.37,2013-06-08 11:40:00,
2013-06-08 04:45:00,69.4,30.0,29.95,NW,315,0.0,0.0,23,0.00,CLR,,0.00,WeatherDisplay:10.37,2013-06-08 11:45:00,
2013-06-08 04:50:00,69.1,30.8,29.94,NW,315,0.0,0.0,24,0.00,CLR,,0.00,WeatherDisplay:10.37,2013-06-08 11:50:00,
2013-06-08 04:55:00,69.1,30.7,29.95,NW,315,0.0,0.0,24,0.00,CLR,,0.00,WeatherDisplay:10.37,2013-06-08 11:55:00,
2013-06-08 05:00:00,68.9,30.6,29.96,NW,315,0.0,0.0,24,0.00,CLR,,0.00,WeatherDisplay:10.37,2013-06-08 12:00:00,
2013-06-08 05:05:00,68.8,30.5,29.95,NW,315,0.0,0.0,24,0.00,CLR,,0.00,WeatherDisplay:10.37,2013-06-08 12:05:00,
2013-06-08 05:10:00,68.7,30.4,29.95,NW,315,0.0,0.0,24,0.00,CLR,,0.00,WeatherDisplay:10.37,2013-06-08 12:10:00,
2013-06-08 05:15:00,68.5,30.3,29.96,NW,315,0.0,0.0,24,0.00,CLR,,0.00,WeatherDisplay:10.37,2013-06-08 12:15:00,
2013-06-08 05:20:00,68.5,30.3,29.96,NNW,341,0.0,0.0,24,0.00,CLR,,0.00,WeatherDisplay:10.37,2013-06-08 12:20:00,
2013-06-08 05:25:00,68.4,30.1,29.96,NNE,16,0.0,0.0,24,0.00,CLR,,0.00,WeatherDisplay:10.37,2013-06-08 12:25:00,
2013-06-08 05:30:00,68.3,31.1,29.96,NNE,22,0.0,0.0,25,0.00,CLR,,0.00,WeatherDisplay:10.37,2013-06-08 12:30:00,
2013-06-08 05:35:00,68.2,31.0,29.96,NNE,22,0.0,0.0,25,0.00,CLR,,0.00,WeatherDisplay:10.37,2013-06-08 12:35:00,
2013-06-08 05:40:00,68.2,31.0,29.96,NNE,22,0.0,0.0,25,0.00,CLR,,0.00,WeatherDisplay:10.37,2013-06-08 12:40:00,
2013-06-08 05:45:00,67.8,30.7,29.96,NNE,22,0.0,0.0,25,0.00,CLR,,0.00,WeatherDisplay:10.37,2013-06-08 12:45:00,
2013-06-08 05:50:00,67.8,31.7,29.96,NNE,22,0.0,0.0,26,0.00,CLR,,0.00,WeatherDisplay:10.37,2013-06-08 12:50:00,
2013-06-08 05:55:00,67.8,31.7,29.97,NNE,22,0.0,0.0,26,0.00,CLR,,0.00,WeatherDisplay:10.37,2013-06-08 12:55:00,
2013-06-08 06:00:00,67.8,31.7,29.96,NNE,22,0.0,0.0,26,0.00,CLR,,0.00,WeatherDisplay:10.37,2013-06-08 13:00:00,
2013-06-08 06:05:00,67.8,31.7,29.97,NNE,22,0.0,0.0,26,0.00,CLR,,0.00,WeatherDisplay:10.37,2013-06-08 13:05:00,
2013-06-08 06:10:00,67.8,31.7,29.97,NNE,22,0.0,0.0,26,0.00,CLR,,0.00,WeatherDisplay:10.37,2013-06-08 13:10:00,
2013-06-08 06:15:00,67.8,32.6,29.97,NNE,22,0.0,0.0,27,0.00,CLR,,0.00,WeatherDisplay:10.37,2013-06-08 13:15:00,
2013-06-08 06:20:00,67.8,31.7,29.97,NNE,22,0.0,0.0,26,0.00,CLR,,0.00,WeatherDisplay:10.37,2013-06-08 13:20:00,
2013-06-08 06:25:00,68.2,32.0,29.97,NNE,22,0.0,0.0,26,0.00,CLR,,0.00,WeatherDisplay:10.37,2013-06-08 13:25:00,
2013-06-08 06:30:00,68.2,32.0,29.97,NNE,22,0.0,0.0,26,0.00,CLR,,0.00,WeatherDisplay:10.37,2013-06-08 13:30:00,
2013-06-08 06:35:00,68.2,32.9,29.97,NNE,22,0.0,0.0,27,0.00,CLR,,0.00,WeatherDisplay:10.37,2013-06-08 13:35:00,
2013-06-08 06:40:00,68.4,33.1,29.97,NNE,22,0.0,0.0,27,0.00,CLR,,0.00,WeatherDisplay:10.37,2013-06-08 13:40:00,
2013-06-08 06:45:00,68.5,33.2,29.97,NNE,22,0.0,0.0,27,0.00,CLR,,0.00,WeatherDisplay:10.37,2013-06-08 13:45:00,
2013-06-08 06:50:00,68.7,35.2,29.98,NNE,22,0.0,0.0,29,0.00,CLR,,0.00,WeatherDisplay:10.37,2013-06-08 13:50:00,
2013-06-08 07:00:00,69.3,33.9,29.98,NNE,22,0.0,0.0,27,0.00,CLR,,0.00,WeatherDisplay:10.37,2013-06-08 14:00:00,
2013-06-08 07:05:00,69.6,34.1,29.98,NNE,31,0.0,0.0,27,0.00,CLR,,0.00,WeatherDisplay:10.37,2013-06-08 14:05:00,
2013-06-08 07:10:00,70.0,34.4,29.99,NE,35,0.0,0.0,27,0.00,CLR,,0.00,WeatherDisplay:10.37,2013-06-08 14:10:00,
2013-06-08 07:15:00,70.4,34.8,29.99,NE,40,0.0,0.0,27,0.00,CLR,,0.00,WeatherDisplay:10.37,2013-06-08 14:15:00,
2013-06-08 07:20:00,70.7,34.1,29.99,NE,45,0.0,0.0,26,0.00,CLR,,0.00,WeatherDisplay:10.37,2013-06-08 14:20:00,
2013-06-08 07:30:00,71.3,34.6,29.99,NE,38,0.0,0.0,26,0.00,CLR,,0.00,WeatherDisplay:10.37,2013-06-08 14:30:00,
2013-06-08 07:35:00,71.8,35.0,30.00,NNE,27,0.0,0.0,26,0.00,CLR,,0.00,WeatherDisplay:10.37,2013-06-08 14:35:00,
2013-06-08 07:40:00,72.1,34.4,29.99,NNE,22,0.0,0.0,25,0.00,CLR,,0.00,WeatherDisplay:10.37,2013-06-08 14:40:00,
2013-06-08 07:45:00,72.6,34.7,30.00,NNE,24,0.0,0.0,25,0.00,CLR,,0.00,WeatherDisplay:10.37,2013-06-08 14:45:00,
2013-06-08 07:50:00,73.0,35.1,29.99,NNE,27,0.0,0.0,25,0.00,CLR,,0.00,WeatherDisplay:10.37,2013-06-08 14:50:00,
2013-06-08 07:55:00,73.6,34.5,30.00,NE,35,0.0,0.0,24,0.00,CLR,,0.00,WeatherDisplay:10.37,2013-06-08 14:55:00,
2013-06-08 08:00:00,74.0,34.9,30.00,NE,45,0.0,0.0,24,0.00,CLR,,0.00,WeatherDisplay:10.37,2013-06-08 15:00:00,
2013-06-08 08:05:00,74.6,35.4,30.00,NE,45,0.0,0.0,24,0.00,CLR,,0.00,WeatherDisplay:10.37,2013-06-08 15:05:00,
2013-06-08 08:10:00,75.0,35.8,30.00,NE,45,0.0,0.0,24,0.00,CLR,,0.00,WeatherDisplay:10.37,2013-06-08 15:10:00,
2013-06-08 08:15:00,75.8,35.4,30.00,NE,45,0.0,0.0,23,0.00,CLR,,0.00,WeatherDisplay:10.37,2013-06-08 15:15:00,
2013-06-08 08:20:00,76.3,35.7,30.00,NE,45,0.0,0.0,23,0.00,CLR,,0.00,WeatherDisplay:10.37,2013-06-08 15:20:00,
2013-06-08 08:25:00,77.0,36.3,30.00,NE,45,0.0,0.0,23,0.00,CLR,,0.00,WeatherDisplay:10.37,2013-06-08 15:25:00,
2013-06-08 08:30:00,77.5,35.7,30.00,NE,45,0.0,0.0,22,0.00,CLR,,0.00,WeatherDisplay:10.37,2013-06-08 15:30:00,
2013-06-08 08:35:00,78.5,36.5,30.00,NE,45,0.0,0.0,22,0.00,CLR,,0.00,WeatherDisplay:10.37,2013-06-08 15:35:00,
2013-06-08 08:40:00,79.3,36.0,30.00,NE,45,0.0,0.0,21,0.00,CLR,,0.00,WeatherDisplay:10.37,2013-06-08 15:40:00,
2013-06-08 08:45:00,79.9,36.4,30.00,NE,54,0.0,0.0,21,0.00,CLR,,0.00,WeatherDisplay:10.37,2013-06-08 15:45:00,
2013-06-08 08:50:00,80.8,37.2,30.00,ENE,60,0.0,0.0,21,0.00,CLR,,0.00,WeatherDisplay:10.37,2013-06-08 15:50:00,
2013-06-08 08:55:00,81.3,36.4,30.00,North,358,0.0,0.0,20,0.00,CLR,,0.00,WeatherDisplay:10.37,2013-06-08 15:55:00,
2013-06-08 09:00:00,82.0,36.9,30.00,WNW,290,0.0,0.0,20,0.00,CLR,,0.00,WeatherDisplay:10.37,2013-06-08 16:00:00,
2013-06-08 09:05:00,83.0,36.5,30.00,WNW,295,2.0,4.0,19,0.00,CLR,,0.00,WeatherDisplay:10.37,2013-06-08 16:05:00,
2013-06-08 09:10:00,83.8,37.2,30.00,NW,306,0.0,0.0,19,0.00,CLR,,0.00,WeatherDisplay:10.37,2013-06-08 16:10:00,
2013-06-08 09:15:00,84.2,37.5,30.00,NW,322,0.0,8.0,19,0.00,CLR,,0.00,WeatherDisplay:10.37,2013-06-08 16:15:00,
2013-06-08 09:20:00,84.9,36.7,30.00,WNW,302,0.0,8.0,18,0.00,CLR,,0.00,WeatherDisplay:10.37,2013-06-08 16:20:00,
2013-06-08 09:25:00,85.5,35.7,30.00,WNW,294,0.0,0.0,17,0.00,CLR,,0.00,WeatherDisplay:10.37,2013-06-08 16:25:00,
2013-06-08 09:30:00,86.1,36.2,30.00,West,275,0.0,0.0,17,0.00,CLR,,0.00,WeatherDisplay:10.37,2013-06-08 16:30:00,
2013-06-08 09:35:00,86.7,36.7,30.00,NW,319,1.0,5.0,17,0.00,CLR,,0.00,WeatherDisplay:10.37,2013-06-08 16:35:00,
2013-06-08 09:40:00,87.1,37.0,30.00,NW,317,0.0,0.0,17,0.00,CLR,,0.00,WeatherDisplay:10.37,2013-06-08 16:40:00,
2013-06-08 09:45:00,87.6,35.9,30.00,WNW,290,0.0,0.0,16,0.00,CLR,,0.00,WeatherDisplay:10.37,2013-06-08 16:45:00,
2013-06-08 09:50:00,88.2,36.3,30.00,WNW,290,3.0,4.0,16,0.00,CLR,,0.00,WeatherDisplay:10.37,2013-06-08 16:50:00,
2013-06-08 09:55:00,88.5,36.6,30.00,West,281,0.0,4.0,16,0.00,CLR,,0.00,WeatherDisplay:10.37,2013-06-08 16:55:00,
2013-06-08 10:00:00,89.1,37.0,30.00,WNW,292,0.0,6.0,16,0.00,CLR,,0.00,WeatherDisplay:10.37,2013-06-08 17:00:00,
2013-06-08 10:05:00,89.4,37.3,30.00,WNW,299,0.0,0.0,16,0.00,CLR,,0.00,WeatherDisplay:10.37,2013-06-08 17:05:00,
2013-06-08 10:10:00,90.0,37.7,30.00,WNW,297,3.0,4.0,16,0.00,CLR,,0.00,WeatherDisplay:10.37,2013-06-08 17:10:00,
2013-06-08 10:15:00,90.5,38.2,30.00,NW,312,3.0,11.0,16,0.00,CLR,,0.00,WeatherDisplay:10.37,2013-06-08 17:15:00,
2013-06-08 10:20:00,91.0,38.6,30.00,WNW,288,7.0,11.0,16,0.00,CLR,,0.00,WeatherDisplay:10.37,2013-06-08 17:20:00,
2013-06-08 10:30:00,91.6,37.4,30.00,West,262,0.0,0.0,15,0.00,CLR,,0.00,WeatherDisplay:10.37,2013-06-08 17:30:00,
2013-06-08 10:35:00,91.8,37.5,30.00,WNW,291,0.0,0.0,15,0.00,CLR,,0.00,WeatherDisplay:10.37,2013-06-08 17:35:00,
2013-06-08 10:40:00,92.3,38.0,30.00,NW,304,2.0,8.0,15,0.00,CLR,,0.00,WeatherDisplay:10.37,2013-06-08 17:40:00,
2013-06-08 10:45:00,93.0,38.5,30.00,WNW,292,0.0,8.0,15,0.00,CLR,,0.00,WeatherDisplay:10.37,2013-06-08 17:45:00,
2013-06-08 10:50:00,93.2,38.6,30.00,WNW,288,6.0,6.0,15,0.00,CLR,,0.00,WeatherDisplay:10.37,2013-06-08 17:50:00,
2013-06-08 11:00:00,93.8,39.1,29.99,NW,319,0.0,0.0,15,0.00,CLR,,0.00,WeatherDisplay:10.37,2013-06-08 18:00:00,
2013-06-08 11:05:00,94.3,39.5,30.00,WNW,299,10.0,12.0,15,0.00,CLR,,0.00,WeatherDisplay:10.37,2013-06-08 18:05:00,
2013-06-08 11:10:00,94.6,39.8,29.99,WNW,302,10.0,12.0,15,0.00,CLR,,0.00,WeatherDisplay:10.37,2013-06-08 18:10:00,
2013-06-08 11:15:00,95.1,40.2,30.00,NW,305,0.0,0.0,15,0.00,CLR,,0.00,WeatherDisplay:10.37,2013-06-08 18:15:00,
2013-06-08 11:20:00,95.2,38.5,30.00,NW,306,3.0,6.0,14,0.00,CLR,,0.00,WeatherDisplay:10.37,2013-06-08 18:20:00,
2013-06-08 11:25:00,95.4,38.6,30.00,NW,316,0.0,0.0,14,0.00,CLR,,0.00,WeatherDisplay:10.37,2013-06-08 18:25:00,
2013-06-08 11:30:00,95.5,40.5,29.99,NNE,14,8.0,11.0,15,0.00,CLR,,0.00,WeatherDisplay:10.37,2013-06-08 18:30:00,
2013-06-08 11:35:00,96.1,39.2,29.99,NNW,338,5.0,10.0,14,0.00,CLR,,0.00,WeatherDisplay:10.37,2013-06-08 18:35:00,
2013-06-08 11:40:00,96.4,39.5,30.00,NW,312,0.0,4.0,14,0.00,CLR,,0.00,WeatherDisplay:10.37,2013-06-08 18:40:00,
2013-06-08 11:45:00,96.6,39.6,30.00,NW,310,0.0,0.0,14,0.00,CLR,,0.00,WeatherDisplay:10.37,2013-06-08 18:45:00,
2013-06-08 11:50:00,97.0,39.9,29.99,WSW,237,6.0,7.0,14,0.00,CLR,,0.00,WeatherDisplay:10.37,2013-06-08 18:50:00,
2013-06-08 11:55:00,97.0,39.9,30.00,West,260,0.0,7.0,14,0.00,CLR,,0.00,WeatherDisplay:10.37,2013-06-08 18:55:00,
2013-06-08 12:00:00,97.3,40.2,29.99,WNW,301,0.0,0.0,14,0.00,CLR,,0.00,WeatherDisplay:10.37,2013-06-08 19:00:00,
2013-06-08 12:10:00,97.9,40.6,29.99,NW,307,0.0,0.0,14,0.00,CLR,,0.00,WeatherDisplay:10.37,2013-06-08 19:10:00,
2013-06-08 12:15:00,98.2,40.9,29.99,WSW,250,0.0,0.0,14,0.00,CLR,,0.00,WeatherDisplay:10.37,2013-06-08 19:15:00,
2013-06-08 12:20:00,98.4,41.0,29.99,West,269,0.0,0.0,14,0.00,CLR,,0.00,WeatherDisplay:10.37,2013-06-08 19:20:00,
2013-06-08 12:25:00,98.6,41.2,29.99,WNW,297,9.0,9.0,14,0.00,CLR,,0.00,WeatherDisplay:10.37,2013-06-08 19:25:00,
2013-06-08 12:30:00,99.0,39.5,29.99,West,280,0.0,0.0,13,0.00,CLR,,0.00,WeatherDisplay:10.37,2013-06-08 19:30:00,
2013-06-08 12:40:00,99.1,39.7,29.99,West,270,5.0,11.0,13,0.00,CLR,,0.00,WeatherDisplay:10.37,2013-06-08 19:40:00,
2013-06-08 12:45:00,99.5,39.9,29.99,West,276,3.0,8.0,13,0.00,CLR,,0.00,WeatherDisplay:10.37,2013-06-08 19:45:00,
2013-06-08 12:50:00,99.5,40.0,29.98,West,275,0.0,8.0,13,0.00,CLR,,0.00,WeatherDisplay:10.37,2013-06-08 19:50:00,
2013-06-08 12:55:00,99.8,40.2,29.99,WNW,286,6.0,7.0,13,0.00,CLR,,0.00,WeatherDisplay:10.37,2013-06-08 19:55:00,
2013-06-08 13:00:00,100.1,40.5,29.99,NW,319,0.0,5.0,13,0.00,CLR,,0.00,WeatherDisplay:10.37,2013-06-08 20:00:00,
2013-06-08 13:05:00,100.2,40.5,29.98,NW,305,7.0,8.0,13,0.00,CLR,,0.00,WeatherDisplay:10.37,2013-06-08 20:05:00,
2013-06-08 13:10:00,100.2,40.5,29.98,NW,318,10.0,10.0,13,0.00,CLR,,0.00,WeatherDisplay:10.37,2013-06-08 20:10:00,
2013-06-08 13:15:00,100.2,40.5,29.98,NW,311,7.0,7.0,13,0.00,CLR,,0.00,WeatherDisplay:10.37,2013-06-08 20:15:00,
2013-06-08 13:20:00,100.2,40.5,29.98,West,274,5.0,6.0,13,0.00,CLR,,0.00,WeatherDisplay:10.37,2013-06-08 20:20:00,
2013-06-08 13:25:00,100.6,40.8,29.98,WSW,252,0.0,6.0,13,0.00,CLR,,0.00,WeatherDisplay:10.37,2013-06-08 20:25:00,
2013-06-08 13:30:00,100.8,40.9,29.98,WSW,252,0.0,6.0,13,0.00,CLR,,0.00,WeatherDisplay:10.37,2013-06-08 20:30:00,
2013-06-08 13:35:00,100.9,41.1,29.98,WSW,256,1.0,5.0,13,0.00,CLR,,0.00,WeatherDisplay:10.37,2013-06-08 20:35:00,
2013-06-08 13:40:00,101.0,41.1,29.98,WSW,258,0.0,4.0,13,0.00,CLR,,0.00,WeatherDisplay:10.37,2013-06-08 20:40:00,
2013-06-08 13:45:00,101.1,41.2,29.98,WSW,248,1.0,4.0,13,0.00,CLR,,0.00,WeatherDisplay:10.37,2013-06-08 20:45:00,
2013-06-08 13:50:00,101.1,41.2,29.98,WSW,248,0.0,4.0,13,0.00,CLR,,0.00,WeatherDisplay:10.37,2013-06-08 20:50:00,
2013-06-08 14:00:00,101.5,41.5,29.97,WSW,248,6.0,8.0,13,0.00,CLR,,0.00,WeatherDisplay:10.37,2013-06-08 21:00:00,
2013-06-08 14:05:00,101.5,41.5,29.97,WSW,248,1.0,7.0,13,0.00,CLR,,0.00,WeatherDisplay:10.37,2013-06-08 21:05:00,
2013-06-08 14:10:00,101.8,41.8,29.97,WSW,248,5.0,7.0,13,0.00,CLR,,0.00,WeatherDisplay:10.37,2013-06-08 21:10:00,
2013-06-08 14:15:00,102.0,41.9,29.97,WSW,248,0.0,7.0,13,0.00,CLR,,0.00,WeatherDisplay:10.37,2013-06-08 21:15:00,
2013-06-08 14:20:00,102.0,41.9,29.97,WSW,248,1.0,7.0,13,0.00,CLR,,0.00,WeatherDisplay:10.37,2013-06-08 21:20:00,
2013-06-08 14:25:00,102.4,42.2,29.97,WSW,248,5.0,7.0,13,0.00,CLR,,0.00,WeatherDisplay:10.37,2013-06-08 21:25:00,
2013-06-08 14:30:00,102.4,40.1,29.97,WSW,248,0.0,7.0,12,0.00,CLR,,0.00,WeatherDisplay:10.37,2013-06-08 21:30:00,
2013-06-08 14:35:00,102.4,40.1,29.96,WSW,248,1.0,5.0,12,0.00,CLR,,0.00,WeatherDisplay:10.37,2013-06-08 21:35:00,
2013-06-08 14:40:00,102.6,42.3,29.96,WSW,248,0.0,0.0,13,0.00,CLR,,0.00,WeatherDisplay:10.37,2013-06-08 21:40:00,
2013-06-08 14:45:00,102.6,40.3,29.96,WSW,248,6.0,6.0,12,0.00,CLR,,0.00,WeatherDisplay:10.37,2013-06-08 21:45:00,
2013-06-08 14:50:00,102.6,40.3,29.96,WSW,248,2.0,3.0,12,0.00,CLR,,0.00,WeatherDisplay:10.37,2013-06-08 21:50:00,
2013-06-08 15:00:00,102.7,40.4,29.96,WSW,248,1.0,2.0,12,0.00,CLR,,0.00,WeatherDisplay:10.37,2013-06-08 22:00:00,
2013-06-08 15:05:00,102.7,40.4,29.95,WSW,248,0.0,0.0,12,0.00,CLR,,0.00,WeatherDisplay:10.37,2013-06-08 22:05:00,
2013-06-08 15:10:00,102.7,40.4,29.95,WSW,248,0.0,16.0,12,0.00,CLR,,0.00,WeatherDisplay:10.37,2013-06-08 22:10:00,
2013-06-08 15:15:00,102.4,40.2,29.95,WSW,248,8.0,9.0,12,0.00,CLR,,0.00,WeatherDisplay:10.37,2013-06-08 22:15:00,
2013-06-08 15:20:00,102.4,40.1,29.95,WSW,248,3.0,12.0,12,0.00,CLR,,0.00,WeatherDisplay:10.37,2013-06-08 22:20:00,
2013-06-08 15:25:00,102.4,40.1,29.95,WSW,248,3.0,4.0,12,0.00,CLR,,0.00,WeatherDisplay:10.37,2013-06-08 22:25:00,
2013-06-08 15:30:00,102.4,40.1,29.95,WSW,248,3.0,6.0,12,0.00,CLR,,0.00,WeatherDisplay:10.37,2013-06-08 22:30:00,
2013-06-08 15:35:00,102.0,39.8,29.95,WSW,248,9.0,9.0,12,0.00,CLR,,0.00,WeatherDisplay:10.37,2013-06-08 22:35:00,
2013-06-08 15:40:00,102.0,39.8,29.95,WSW,248,0.0,13.0,12,0.00,CLR,,0.00,WeatherDisplay:10.37,2013-06-08 22:40:00,
2013-06-08 15:45:00,101.3,39.3,29.95,WSW,248,10.0,14.0,12,0.00,CLR,,0.00,WeatherDisplay:10.37,2013-06-08 22:45:00,
2013-06-08 15:50:00,101.1,39.1,29.95,WSW,248,3.0,14.0,12,0.00,CLR,,0.00,WeatherDisplay:10.37,2013-06-08 22:50:00,
2013-06-08 16:00:00,100.6,38.8,29.95,WSW,248,5.0,8.0,12,0.00,CLR,,0.00,WeatherDisplay:10.37,2013-06-08 23:00:00,
2013-06-08 16:05:00,100.2,38.5,29.95,WSW,248,12.0,12.0,12,0.00,CLR,,0.00,WeatherDisplay:10.37,2013-06-08 23:05:00,
2013-06-08 16:10:00,99.9,38.2,29.95,WSW,248,0.0,12.0,12,0.00,CLR,,0.00,WeatherDisplay:10.37,2013-06-08 23:10:00,
2013-06-08 16:15:00,99.5,40.0,29.95,WSW,248,8.0,10.0,13,0.00,CLR,,0.00,WeatherDisplay:10.37,2013-06-08 23:15:00,
2013-06-08 16:20:00,99.3,39.8,29.95,WSW,248,0.0,10.0,13,0.00,CLR,,0.00,WeatherDisplay:10.37,2013-06-08 23:20:00,
2013-06-08 16:25:00,99.1,39.7,29.95,WSW,248,6.0,6.0,13,0.00,CLR,,0.00,WeatherDisplay:10.37,2013-06-08 23:25:00,
2013-06-08 16:30:00,98.8,39.4,29.95,WSW,248,0.0,5.0,13,0.00,CLR,,0.00,WeatherDisplay:10.37,2013-06-08 23:30:00,
2013-06-08 16:35:00,98.6,39.3,29.95,WSW,248,5.0,6.0,13,0.00,CLR,,0.00,WeatherDisplay:10.37,2013-06-08 23:35:00,
2013-06-08 16:40:00,98.4,39.1,29.94,WSW,248,6.0,10.0,13,0.00,CLR,,0.00,WeatherDisplay:10.37,2013-06-08 23:40:00,
2013-06-08 16:45:00,98.1,38.8,29.95,WSW,248,7.0,10.0,13,0.00,CLR,,0.00,WeatherDisplay:10.37,2013-06-08 23:45:00,
2013-06-08 16:50:00,97.7,38.6,29.94,WSW,248,8.0,8.0,13,0.00,CLR,,0.00,WeatherDisplay:10.37,2013-06-08 23:50:00,
2013-06-08 16:55:00,97.5,38.4,29.94,WSW,254,3.0,15.0,13,0.00,CLR,,0.00,WeatherDisplay:10.37,2013-06-08 23:55:00,
2013-06-08 17:00:00,97.2,38.1,29.94,WSW,251,10.0,13.0,13,0.00,CLR,,0.00,WeatherDisplay:10.37,2013-06-09 00:00:00,
2013-06-08 17:05:00,96.6,37.7,29.95,WSW,248,6.0,6.0,13,0.00,CLR,,0.00,WeatherDisplay:10.37,2013-06-09 00:05:00,
2013-06-08 17:10:00,96.2,37.4,29.94,WSW,248,6.0,7.0,13,0.00,CLR,,0.00,WeatherDisplay:10.37,2013-06-09 00:10:00,
2013-06-08 17:15:00,95.7,37.0,29.95,WSW,248,7.0,10.0,13,0.00,CLR,,0.00,WeatherDisplay:10.37,2013-06-09 00:15:00,
2013-06-08 17:20:00,95.5,36.9,29.95,WSW,248,7.0,10.0,13,0.00,CLR,,0.00,WeatherDisplay:10.37,2013-06-09 00:20:00,
2013-06-08 17:25:00,95.3,38.6,29.95,WSW,254,6.0,8.0,14,0.00,CLR,,0.00,WeatherDisplay:10.37,2013-06-09 00:25:00,
2013-06-08 17:30:00,94.9,38.2,29.94,West,266,0.0,7.0,14,0.00,CLR,,0.00,WeatherDisplay:10.37,2013-06-09 00:30:00,
2013-06-08 17:35:00,94.6,38.0,29.95,WSW,254,9.0,10.0,14,0.00,CLR,,0.00,WeatherDisplay:10.37,2013-06-09 00:35:00,
2013-06-08 17:40:00,94.2,37.7,29.95,West,276,10.0,10.0,14,0.00,CLR,,0.00,WeatherDisplay:10.37,2013-06-09 00:40:00,
2013-06-08 17:45:00,93.7,37.3,29.95,WNW,293,6.0,13.0,14,0.00,CLR,,0.00,WeatherDisplay:10.37,2013-06-09 00:45:00,
2013-06-08 17:50:00,93.7,37.3,29.94,WNW,287,7.0,14.0,14,0.00,CLR,,0.00,WeatherDisplay:10.37,2013-06-09 00:50:00,
2013-06-08 17:55:00,93.3,37.0,29.95,West,270,6.0,10.0,14,0.00,CLR,,0.00,WeatherDisplay:10.37,2013-06-09 00:55:00,
2013-06-08 18:00:00,92.9,36.7,29.95,WNW,285,2.0,7.0,14,0.00,CLR,,0.00,WeatherDisplay:10.37,2013-06-09 01:00:00,
2013-06-08 18:05:00,92.7,36.5,29.95,WNW,289,1.0,7.0,14,0.00,CLR,,0.00,WeatherDisplay:10.37,2013-06-09 01:05:00,
2013-06-08 18:10:00,92.3,36.2,29.95,West,279,6.0,6.0,14,0.00,CLR,,0.00,WeatherDisplay:10.37,2013-06-09 01:10:00,
2013-06-08 18:15:00,92.1,36.1,29.95,West,264,9.0,10.0,14,0.00,CLR,,0.00,WeatherDisplay:10.37,2013-06-09 01:15:00,
2013-06-08 18:20:00,91.6,37.4,29.96,WSW,258,8.0,9.0,15,0.00,CLR,,0.00,WeatherDisplay:10.37,2013-06-09 01:20:00,
2013-06-08 18:25:00,91.4,37.2,29.95,WSW,250,5.0,8.0,15,0.00,CLR,,0.00,WeatherDisplay:10.37,2013-06-09 01:25:00,
2013-06-08 18:30:00,91.2,37.1,29.95,WSW,239,0.0,7.0,15,0.00,CLR,,0.00,WeatherDisplay:10.37,2013-06-09 01:30:00,
2013-06-08 18:40:00,90.4,36.5,29.96,West,278,6.0,8.0,15,0.00,CLR,,0.00,WeatherDisplay:10.37,2013-06-09 01:40:00,
2013-06-08 18:45:00,90.1,36.2,29.96,WSW,256,7.0,8.0,15,0.00,CLR,,0.00,WeatherDisplay:10.37,2013-06-09 01:45:00,
2013-06-08 18:50:00,89.8,36.0,29.96,WSW,248,1.0,11.0,15,0.00,CLR,,0.00,WeatherDisplay:10.37,2013-06-09 01:50:00,
2013-06-08 18:55:00,89.7,35.9,29.96,WSW,248,0.0,9.0,15,0.00,CLR,,0.00,WeatherDisplay:10.37,2013-06-09 01:55:00,
2013-06-08 19:00:00,89.3,35.6,29.96,SW,231,6.0,9.0,15,0.00,CLR,,0.00,WeatherDisplay:10.37,2013-06-09 02:00:00,
2013-06-08 19:05:00,88.9,35.2,29.96,WSW,253,9.0,11.0,15,0.00,CLR,,0.00,WeatherDisplay:10.37,2013-06-09 02:05:00,
2013-06-08 19:10:00,88.6,35.0,29.96,West,281,10.0,11.0,15,0.00,CLR,,0.00,WeatherDisplay:10.37,2013-06-09 02:10:00,
2013-06-08 19:15:00,88.3,34.8,29.96,West,278,0.0,6.0,15,0.00,CLR,,0.00,WeatherDisplay:10.37,2013-06-09 02:15:00,
2013-06-08 19:20:00,88.0,34.5,29.97,West,281,0.0,0.0,15,0.00,CLR,,0.00,WeatherDisplay:10.37,2013-06-09 02:20:00,
2013-06-08 19:25:00,87.6,34.2,29.97,West,275,0.0,6.0,15,0.00,CLR,,0.00,WeatherDisplay:10.37,2013-06-09 02:25:00,
2013-06-08 19:30:00,87.3,35.6,29.97,West,270,0.0,0.0,16,0.00,CLR,,0.00,WeatherDisplay:10.37,2013-06-09 02:30:00,
2013-06-08 19:35:00,87.1,35.4,29.97,West,263,0.0,0.0,16,0.00,CLR,,0.00,WeatherDisplay:10.37,2013-06-09 02:35:00,
2013-06-08 19:40:00,86.7,35.1,29.97,WSW,256,2.0,3.0,16,0.00,CLR,,0.00,WeatherDisplay:10.37,2013-06-09 02:40:00,
2013-06-08 19:45:00,86.4,34.9,29.97,West,269,0.0,0.0,16,0.00,CLR,,0.00,WeatherDisplay:10.37,2013-06-09 02:45:00,
2013-06-08 19:50:00,86.2,34.7,29.97,WNW,302,12.0,12.0,16,0.00,CLR,,0.00,WeatherDisplay:10.37,2013-06-09 02:50:00,
2013-06-08 19:55:00,85.8,36.0,29.97,West,267,0.0,12.0,17,0.00,CLR,,0.00,WeatherDisplay:10.37,2013-06-09 02:55:00,
2013-06-08 20:00:00,85.6,35.8,29.98,West,263,0.0,0.0,17,0.00,CLR,,0.00,WeatherDisplay:10.37,2013-06-09 03:00:00,
2013-06-08 20:05:00,85.5,35.7,29.98,West,261,5.0,6.0,17,0.00,CLR,,0.00,WeatherDisplay:10.37,2013-06-09 03:05:00,
2013-06-08 20:10:00,85.2,35.4,29.98,WNW,288,3.0,7.0,17,0.00,CLR,,0.00,WeatherDisplay:10.37,2013-06-09 03:10:00,
2013-06-08 20:15:00,84.7,35.1,29.99,West,280,3.0,5.0,17,0.00,CLR,,0.00,WeatherDisplay:10.37,2013-06-09 03:15:00,
2013-06-08 20:20:00,84.7,35.1,29.99,West,265,0.0,5.0,17,0.00,CLR,,0.00,WeatherDisplay:10.37,2013-06-09 03:20:00,
2013-06-08 20:25:00,84.4,34.8,29.99,WNW,292,0.0,0.0,17,0.00,CLR,,0.00,WeatherDisplay:10.37,2013-06-09 03:25:00,
2013-06-08 20:30:00,84.0,34.5,29.99,WNW,287,0.0,0.0,17,0.00,CLR,,0.00,WeatherDisplay:10.37,2013-06-09 03:30:00,
2013-06-08 20:35:00,84.0,34.5,29.99,West,272,0.0,0.0,17,0.00,CLR,,0.00,WeatherDisplay:10.37,2013-06-09 03:35:00,
2013-06-08 20:40:00,83.7,34.2,30.00,WNW,292,0.0,0.0,17,0.00,CLR,,0.00,WeatherDisplay:10.37,2013-06-09 03:40:00,
2013-06-08 20:45:00,83.5,34.1,30.00,NW,308,1.0,4.0,17,0.00,CLR,,0.00,WeatherDisplay:10.37,2013-06-09 03:45:00,
2013-06-08 20:50:00,83.1,33.8,30.00,NW,310,0.0,0.0,17,0.00,CLR,,0.00,WeatherDisplay:10.37,2013-06-09 03:50:00,
2013-06-08 20:55:00,82.8,34.9,30.00,WNW,295,0.0,0.0,18,0.00,CLR,,0.00,WeatherDisplay:10.37,2013-06-09 03:55:00,
2013-06-08 21:00:00,82.2,35.8,30.00,WNW,284,0.0,0.0,19,0.00,CLR,,0.00,WeatherDisplay:10.37,2013-06-09 04:00:00,
2013-06-08 21:05:00,82.2,35.8,30.00,WNW,292,0.0,0.0,19,0.00,CLR,,0.00,WeatherDisplay:10.37,2013-06-09 04:05:00,
2013-06-08 21:10:00,81.7,35.4,30.01,WNW,292,2.0,3.0,19,0.00,CLR,,0.00,WeatherDisplay:10.37,2013-06-09 04:10:00,
2013-06-08 21:15:00,81.5,35.2,30.01,WNW,292,0.0,0.0,19,0.00,CLR,,0.00,WeatherDisplay:10.37,2013-06-09 04:15:00,
2013-06-08 21:20:00,81.3,35.1,30.01,WNW,292,7.0,8.0,19,0.00,CLR,,0.00,WeatherDisplay:10.37,2013-06-09 04:20:00,
2013-06-08 21:25:00,81.1,35.0,30.01,WNW,292,0.0,7.0,19,0.00,CLR,,0.00,WeatherDisplay:10.37,2013-06-09 04:25:00,
2013-06-08 21:30:00,81.0,34.8,30.01,WNW,292,0.0,0.0,19,0.00,CLR,,0.00,WeatherDisplay:10.37,2013-06-09 04:30:00,
2013-06-08 21:35:00,80.8,34.6,30.01,WNW,286,0.0,0.0,19,0.00,CLR,,0.00,WeatherDisplay:10.37,2013-06-09 04:35:00,
2013-06-08 21:40:00,80.4,34.4,30.02,WNW,284,0.0,0.0,19,0.00,CLR,,0.00,WeatherDisplay:10.37,2013-06-09 04:40:00,
2013-06-08 21:45:00,80.4,34.4,30.02,WNW,286,0.0,0.0,19,0.00,CLR,,0.00,WeatherDisplay:10.37,2013-06-09 04:45:00,
2013-06-08 21:50:00,80.4,34.4,30.01,WNW,283,6.0,6.0,19,0.00,CLR,,0.00,WeatherDisplay:10.37,2013-06-09 04:50:00,
2013-06-08 21:55:00,80.4,34.4,30.02,West,262,0.0,0.0,19,0.00,CLR,,0.00,WeatherDisplay:10.37,2013-06-09 04:55:00,
2013-06-08 22:00:00,80.4,34.4,30.02,West,261,0.0,0.0,19,0.00,CLR,,0.00,WeatherDisplay:10.37,2013-06-09 05:00:00,
2013-06-08 22:05:00,80.4,34.4,30.02,WSW,258,0.0,0.0,19,0.00,CLR,,0.00,WeatherDisplay:10.37,2013-06-09 05:05:00,
2013-06-08 22:10:00,80.4,34.4,30.02,WSW,256,0.0,0.0,19,0.00,CLR,,0.00,WeatherDisplay:10.37,2013-06-09 05:10:00,
2013-06-08 22:15:00,80.4,34.4,30.02,WSW,242,0.0,0.0,19,0.00,CLR,,0.00,WeatherDisplay:10.37,2013-06-09 05:15:00,
2013-06-08 22:20:00,80.2,32.9,30.02,West,267,0.0,7.0,18,0.00,CLR,,0.00,WeatherDisplay:10.37,2013-06-09 05:20:00,
2013-06-08 22:25:00,80.2,32.9,30.02,West,269,0.0,0.0,18,0.00,CLR,,0.00,WeatherDisplay:10.37,2013-06-09 05:25:00,
2013-06-08 22:30:00,80.2,32.9,30.02,WSW,242,0.0,0.0,18,0.00,CLR,,0.00,WeatherDisplay:10.37,2013-06-09 05:30:00,
2013-06-08 22:35:00,80.1,32.7,30.02,WSW,238,0.0,0.0,18,0.00,CLR,,0.00,WeatherDisplay:10.37,2013-06-09 05:35:00,
2013-06-08 22:40:00,80.1,32.7,30.02,SW,235,0.0,0.0,18,0.00,CLR,,0.00,WeatherDisplay:10.37,2013-06-09 05:40:00,
2013-06-08 22:45:00,79.9,32.6,30.02,SW,222,0.0,0.0,18,0.00,CLR,,0.00,WeatherDisplay:10.37,2013-06-09 05:45:00,
2013-06-08 22:50:00,79.7,32.4,30.02,SW,221,0.0,0.0,18,0.00,CLR,,0.00,WeatherDisplay:10.37,2013-06-09 05:50:00,
2013-06-08 22:55:00,79.4,33.5,30.02,SW,222,0.0,0.0,19,0.00,CLR,,0.00,WeatherDisplay:10.37,2013-06-09 05:55:00,
2013-06-08 23:00:00,79.2,34.7,30.02,SW,214,0.0,0.0,20,0.00,CLR,,0.00,WeatherDisplay:10.37,2013-06-09 06:00:00,
2013-06-08 23:10:00,78.6,34.2,30.02,SW,214,0.0,0.0,20,0.00,CLR,,0.00,WeatherDisplay:10.37,2013-06-09 06:10:00,
2013-06-08 23:15:00,78.6,34.2,30.02,SSW,213,0.0,0.0,20,0.00,CLR,,0.00,WeatherDisplay:10.37,2013-06-09 06:15:00,
2013-06-08 23:20:00,78.6,34.2,30.02,SW,219,7.0,7.0,20,0.00,CLR,,0.00,WeatherDisplay:10.37,2013-06-09 06:20:00,
2013-06-08 23:25:00,78.4,34.0,30.02,SSW,211,0.0,7.0,20,0.00,CLR,,0.00,WeatherDisplay:10.37,2013-06-09 06:25:00,
2013-06-08 23:30:00,78.4,34.0,30.02,SSW,208,3.0,8.0,20,0.00,CLR,,0.00,WeatherDisplay:10.37,2013-06-09 06:30:00,
2013-06-08 23:35:00,78.4,34.0,30.02,SSW,209,0.0,0.0,20,0.00,CLR,,0.00,WeatherDisplay:10.37,2013-06-09 06:35:00,
2013-06-08 23:40:00,78.1,33.7,30.02,SSW,209,3.0,5.0,20,0.00,CLR,,0.00,WeatherDisplay:10.37,2013-06-09 06:40:00,
2013-06-08 23:45:00,77.9,33.6,30.02,SSW,208,0.0,0.0,20,0.00,CLR,,0.00,WeatherDisplay:10.37,2013-06-09 06:45:00,
2013-06-08 23:50:00,77.9,33.6,30.02,SSW,206,0.0,0.0,20,0.00,CLR,,0.00,WeatherDisplay:10.37,2013-06-09 06:50:00,
2013-06-08 23:55:00,77.7,34.7,30.02,SSW,209,0.0,0.0,21,0.00,CLR,,0.00,WeatherDisplay:10.37,2013-06-09 06:55:00,